This demonstration page uses our WeatherBlox Daily Observations layout. Learn more.

Left ArrowRight Arrow

Hourly Observations for November 27, 2019

Temp ( °F °C ) Dew Point ( °F °C ) Humidity (%) Winds ( mph kmh ) Pressure ( in mb ) Visibility ( mi km ) Precip ( " mm )
12:56 am 00:56 Clear 24 -4.4 21 -6.1 88 88 NW 18 30 29.94 1014 10 16 0.00 0.00
1:56 am 01:56 Mostly Cloudy 24 -4.4 20 -6.7 84 84 NW 17 28 29.98 1015 10 16 0.00 0.00
2:19 am 02:19 Cloudy 27 -3 21 -6 80 80 NW 18 30 30.05 1017 10 16 0.00 0.00
2:56 am 02:56 Cloudy 26 -3.3 22 -5.6 84 84 NW 16 26 30.02 1017 10 16 0.00 0.00
3:56 am 03:56 Cloudy 27 -2.8 22 -5.6 81 81 WNW 18 30 30.06 1018 10 16 0.00 0.00
4:56 am 04:56 Cloudy 26 -3.3 20 -6.7 78 78 WNW 18 30 30.11 1020 10 16 0.00 0.00
5:56 am 05:56 Clear 19 -7.2 15 -9.4 84 84 WNW 10 17 30.13 1020 10 16 0.00 0.00
6:14 am 06:14 Mostly Cloudy 19 -7 16 -9 86 86 WNW 10 17 30.21 1023 10 16 0.00 0.00
6:56 am 06:56 Cloudy 20 -6.7 16 -8.9 85 85 W 9 15 30.16 1021 10 16 0.00 0.00
7:16 am 07:16 Partly Cloudy 18 -8 16 -9 93 93 W 8 13 30.26 1025 10 16 0.00 0.00
7:56 am 07:56 Sunny 19 -7.2 16 -8.9 88 88 WNW 13 20 30.22 1023 10 16 0.00 0.00
8:56 am 08:56 Sunny 21 -6.1 16 -8.9 81 81 NW 13 20 30.26 1025 10 16 0.00 0.00
9:56 am 09:56 Sunny 25 -3.9 19 -7.2 78 78 NNW 12 19 30.29 1026 10 16 0.00 0.00
10:56 am 10:56 Sunny 30 -1.1 21 -6.1 69 69 NNW 7 11 30.32 1027 10 16 0.00 0.00
11:56 am 11:56 Sunny 31 -0.6 21 -6.1 67 67 N 12 19 30.32 1027 10 16 0.00 0.00
12:56 pm 12:56 Sunny 32 0 22 -5.6 66 66 NNW 9 15 30.30 1026 10 16 0.00 0.00
1:56 pm 13:56 Sunny 32 0 20 -6.7 61 61 NNW 6 9 30.32 1027 10 16 0.00 0.00
2:56 pm 14:56 Sunny 32 0 19 -7.2 59 59 N 5 7 30.36 1028 10 16 0.00 0.00
3:56 pm 15:56 Sunny 29 -1.7 20 -6.7 69 69 WNW 3 6 30.37 1029 10 16 0.00 0.00
4:56 pm 16:56 Sunny 23 -5 15 -9.4 72 72 Calm 30.39 1029 10 16 0.00 0.00
5:56 pm 17:56 Clear 19 -7.2 13 -10.6 77 77 S 3 6 30.42 1030 10 16 0.00 0.00
6:56 pm 18:56 Clear 17 -8.3 14 -10 88 88 Calm 30.45 1031 10 16 0.00 0.00
7:56 pm 19:56 Clear 16 -8.9 12 -11.1 84 84 Calm 30.46 1031 10 16 0.00 0.00
8:56 pm 20:56 Clear 14 -10 11 -11.7 88 88 NNE 3 6 30.45 1031 10 16 0.00 0.00
9:56 pm 21:56 Clear 15 -9.4 12 -11.1 88 88 Calm 30.47 1032 10 16 0.00 0.00
10:56 pm 22:56 Clear 13 -10.6 10 -12.2 88 88 Calm 30.44 1031 10 16 0.00 0.00
11:56 pm 23:56 Clear 15 -9.4 12 -11.1 88 88 Calm 30.45 1031 10 16 0.00 0.00

Powered by AerisWeather